[[{"header":{"parameterUnit":"m.s-1","parameterCategory":1,"la1":30.2991,"la2":30.254,"lo1":-89.0895,"lo2":-89.0444,"dy":0.0017,"dx":0.0017,"nx":28,"ny":28,"refTime":"2023-08-15T21:00:00:Z","depth":0,"parameterNumber":2,"parameterNumberName":"U-component_of_WINDS"},"data":[0,0,0,0,0,0,0,0,0,0,0,0,0,0,0,0,0,0,0,0,0,0,0,0,0,0,0,0,0,0,0,0,0,0,0,0,0,0,0,0,0,0,0,0,0,0,0,0,0,0,0,0,0,0,0,0,0,0,0.7975,0.7976,0,0.8062,0.8063,0.8064,0.8158,0.8159,0.816,0.8162,0.8251,0.8252,0.8253,0,0,0,0,0,0,0,0,0,0,0,0,0,0.7889,0.789,0.7975,0.7976,0.7977,0.8062,0.8063,0.8064,0.8157,0.8159,0.8161,0.8162,0.8251,0.8252,0.8253,0,0,0,0,0,0,0,0,0,0,0,0,0,0.7946,0.789,0.7975,0.8034,0.804,0.8062,0.8063,0.8065,0.8157,0.8159,0.8161,0.8163,0.825,0.8252,0.8254,0.8224,0,0,0.8259,0.826,0,0,0,0,0,0,0,0,0.7943,0.7949,0.8024,0.803,0.8037,0.8101,0.8066,0.8118,0.8157,0.8113,0.8162,0.8164,0.82,0.8206,0.8218,0.8228,0.8232,0.8259,0.826,0.8261,0.8261,0,0,0,0,0,0,0,0.7939,0.7946,0.8009,0.8025,0.8033,0.8056,0.8066,0.8076,0.8144,0.8117,0.8124,0.8133,0.8203,0.8216,0.822,0.8234,0.8259,0.826,0.8261,0.8262,0.8225,0.8223,0,0,0,0,0,0,0.7926,0.7942,0.8007,0.8012,0.7994,0.8056,0.8067,0.8078,0.8144,0.8156,0.8131,0.8137,0.8212,0.8218,0.8224,0.8194,0.8261,0.8262,0.8263,0.8227,0.8225,0.8223,0,0,0,0,0,0,0.7924,0.7931,0.8003,0.7979,0.799,0.8055,0.8067,0.8079,0.8091,0.8155,0.8167,0.8131,0.8214,0.8221,0.8224,0.8199,0.8263,0.8265,0.823,0.8226,0.8224,0.8134,0,0,0,0,0,0,0.7921,0.7929,0.7919,0.7978,0.7991,0.8001,0.8065,0.8079,0.8094,0.8103,0.8158,0.8169,0.8216,0.822,0.8225,0.8202,0.8266,0.8232,0.8228,0.8225,0.814,0.8128,0.8119,0,0,0,0,0,0.7917,0.789,0.7918,0.7925,0.7979,0.7999,0.8007,0.8061,0.8092,0.8082,0.8122,0.8168,0.82,0.822,0.8226,0.8203,0.8234,0.8229,0.8225,0.8144,0.8131,0.8119,0,0,0,0,0,0,0.7826,0.7899,0.793,0.7922,0.7954,0.8015,0.8004,0.8045,0.8069,0.8075,0.8141,0.8153,0.8147,0.8176,0.8196,0.8178,0.8224,0.822,0.816,0.8148,0.8138,0.8131,0.8267,0,0,0,0,0,0.7805,0.7815,0.7878,0.7865,0.7879,0.7938,0.7949,0.7988,0.8024,0.8038,0.8079,0.8112,0.813,0.814,0.816,0.8144,0.8158,0.8131,0.8121,0.8112,0.8108,0.8102,0.8091,0.8208,0.8208,0.8208,0,0,0.7761,0.7803,0.7805,0.7847,0.7877,0.7886,0.7949,0.7957,0.7964,0.8039,0.8044,0.8075,0.8116,0.8109,0.8108,0.8132,0.8079,0.8106,0.8099,0.81,0.8096,0.8085,0.8075,0.8205,0.8205,0.8206,0,0,0.7687,0.7719,0.7711,0.7739,0.7783,0.7823,0.7821,0.7876,0.79,0.7905,0.7962,0.7972,0.8001,0.8028,0.8046,0.7981,0.8024,0.7986,0.7932,0.7925,0.7915,0.7908,0.7885,0.7876,0.7982,0.7982,0.7981,0,0.7628,0.7644,0.7702,0.7706,0.7723,0.7791,0.7784,0.7808,0.7856,0.7866,0.7892,0.7931,0.7963,0.7963,0.7947,0.7959,0.7959,0.798,0.7912,0.7905,0.7898,0.7877,0.7869,0.7977,0.7977,0.7978,0.7978,0,0.7569,0.7579,0.7568,0.7612,0.7628,0.7626,0.7683,0.7692,0.7729,0.7766,0.7771,0.7812,0.7842,0.7845,0.7881,0.785,0.7864,0.79,0.7947,0.7881,0.7863,0.7855,0.797,0.7972,0.7973,0.7974,0,0,0.744,0.7517,0.7511,0.7532,0.7585,0.7595,0.7596,0.7625,0.7631,0.7661,0.7664,0.7687,0.7721,0.7741,0.7781,0.7774,0.7721,0.7812,0.7814,0.7794,0.7689,0.7661,0.7651,0.7749,0.7748,0.7747,0.7686,0,0.7376,0.7382,0.7434,0.7425,0.7436,0.75,0.7501,0.7534,0.7568,0.7582,0.762,0.7635,0.7679,0.7691,0.7688,0.7728,0.7701,0.7733,0.7752,0.7752,0.774,0.7641,0.7612,0.7553,0.7679,0.7677,0.7677,0,0.7301,0.7327,0.7319,0.7373,0.7379,0.7379,0.7409,0.7422,0.746,0.7485,0.7507,0.7552,0.7557,0.76,0.7608,0.7628,0.7639,0.766,0.7659,0.7663,0.7711,0.7643,0.7535,0.7526,0.7666,0.7667,0.7667,0,0.7208,0.7241,0.7241,0.7257,0.7319,0.7317,0.7343,0.7383,0.7397,0.7424,0.7434,0.746,0.7475,0.7494,0.7545,0.7572,0.7546,0.7594,0.7568,0.7566,0.756,0.756,0.7452,0.7566,0.7566,0.7566,0.7566,0,0.7131,0.7124,0.72,0.72,0.7194,0.7254,0.7246,0.7278,0.7313,0.732,0.7377,0.7382,0.7449,0.7462,0.7502,0.7502,0.7508,0.7529,0.7539,0.7524,0.7521,0.7532,0.7538,0.7564,0.7564,0.7565,0.7565,0,0.7027,0.7078,0.7082,0.714,0.7154,0.7147,0.7197,0.7199,0.7237,0.7245,0.725,0.7309,0.7327,0.738,0.7411,0.7438,0.7426,0.7447,0.7414,0.7421,0.7391,0.7393,0.7287,0.7276,0.7396,0.7395,0.7394,0,0.6974,0.697,0.7028,0.7037,0.706,0.7074,0.7088,0.7147,0.7159,0.7202,0.7199,0.7222,0.7243,0.7269,0.7314,0.7338,0.736,0.7321,0.7364,0.7348,0.7359,0.7359,0.7359,0.7312,0.731,0.7309,0.7308,0,0.6876,0.6901,0.692,0.6947,0.6963,0.6988,0.7015,0.7019,0.7085,0.7096,0.7115,0.7131,0.7163,0.7185,0.7216,0.7243,0.7286,0.7294,0.7289,0.7273,0.7254,0.7264,0.7388,0.7296,0.7297,0.7298,0.7299,0.7299,0.6797,0.6796,0.6836,0.6855,0.6882,0.6907,0.6912,0.695,0.6967,0.6997,0.7031,0.7046,0.7084,0.7131,0.7154,0.7167,0.7189,0.7182,0.7181,0.7178,0.7171,0.7251,0.7172,0.7173,0.7173,0.7174,0.7174,0,0.6701,0.673,0.6747,0.6784,0.6799,0.6838,0.6871,0.688,0.6893,0.6925,0.6945,0.6966,0.6987,0.7034,0.706,0.7061,0.7081,0.7066,0.7066,0.7072,0.7149,0.7151,0.7049,0.7049,0.7049,0.7049,0.7049,0.7049,0.6654,0.6655,0.6685,0.67,0.6729,0.6745,0.676,0.6783,0.6808,0.683,0.6848,0.6878,0.6916,0.6945,0.6966,0.6979,0.6986,0.6964,0.6983,0.7054,0.7066,0.7078,0.708,0.6965,0.6964,0.6905,0.6905,0.6904]},{"header":{"parameterUnit":"m.s-1","parameterCategory":1,"la1":30.2991,"la2":30.254,"lo1":-89.0895,"lo2":-89.0444,"dy":0.0017,"dx":0.0017,"nx":28,"ny":28,"refTime":"2023-08-15T21:00:00:Z","depth":0,"parameterNumber":3,"parameterNumberName":"V-component_of_WINDS"},"data":[0,0,0,0,0,0,0,0,0,0,0,0,0,0,0,0,0,0,0,0,0,0,0,0,0,0,0,0,0,0,0,0,0,0,0,0,0,0,0,0,0,0,0,0,0,0,0,0,0,0,0,0,0,0,0,0,0,0,2.9239,2.924,0,2.9241,2.9241,2.9241,2.925,2.925,2.9251,2.9251,2.925,2.925,2.925,0,0,0,0,0,0,0,0,0,0,0,0,0,2.9241,2.9241,2.9239,2.924,2.924,2.9241,2.9241,2.9241,2.925,2.925,2.9251,2.9251,2.925,2.925,2.925,0,0,0,0,0,0,0,0,0,0,0,0,0,2.9241,2.9241,2.9239,2.9244,2.9245,2.9241,2.9241,2.9241,2.925,2.925,2.9251,2.9251,2.925,2.925,2.925,2.924,0,0,2.9248,2.9248,0,0,0,0,0,0,0,0,2.9241,2.9241,2.9244,2.9244,2.9245,2.9246,2.9241,2.9241,2.925,2.9248,2.9251,2.9251,2.9248,2.9248,2.9247,2.924,2.924,2.9248,2.9248,2.9248,2.9248,0,0,0,0,0,0,0,2.9241,2.9241,2.924,2.9244,2.9244,2.9245,2.9246,2.9241,2.9246,2.9248,2.9249,2.9249,2.9248,2.9248,2.9247,2.924,2.9248,2.9248,2.9248,2.9248,2.9222,2.9222,0,0,0,0,0,0,2.9241,2.9241,2.924,2.924,2.9244,2.9245,2.9245,2.9245,2.9246,2.9247,2.9249,2.9249,2.9248,2.9248,2.9248,2.9235,2.9248,2.9248,2.9248,2.9223,2.9222,2.9222,0,0,0,0,0,0,2.9241,2.9241,2.924,2.9241,2.9241,2.9245,2.9244,2.9245,2.9244,2.9247,2.9247,2.9247,2.9248,2.9248,2.9241,2.9235,2.9248,2.9247,2.9223,2.9223,2.9222,2.921,0,0,0,0,0,0,2.9241,2.9241,2.9238,2.9241,2.9241,2.9235,2.9244,2.9245,2.9244,2.9245,2.9245,2.9246,2.9249,2.9242,2.9241,2.9235,2.9247,2.9224,2.9223,2.9222,2.9211,2.9209,2.9208,0,0,0,0,0,2.9241,2.9235,2.9238,2.9238,2.9238,2.9235,2.9235,2.9239,2.9243,2.924,2.9241,2.9246,2.9236,2.9241,2.924,2.9234,2.9224,2.9223,2.9222,2.9212,2.921,2.9208,0,0,0,0,0,0,2.9232,2.9236,2.9239,2.9234,2.9234,2.9236,2.9233,2.9236,2.9235,2.9235,2.924,2.924,2.9232,2.9232,2.9238,2.9223,2.9231,2.9229,2.9223,2.9221,2.9219,2.9219,2.9247,0,0,0,0,0,2.923,2.9228,2.9231,2.9226,2.9226,2.9229,2.9228,2.9231,2.9231,2.923,2.9231,2.923,2.9226,2.9224,2.9221,2.9211,2.921,2.9206,2.9204,2.9203,2.9201,2.9193,2.9191,2.9218,2.9218,2.9218,0,0,2.9225,2.9226,2.9225,2.9224,2.9225,2.9221,2.9229,2.9226,2.9222,2.923,2.9223,2.9223,2.9222,2.9213,2.921,2.9213,2.9193,2.9201,2.92,2.92,2.9192,2.919,2.9187,2.9218,2.9218,2.9218,0,0,2.9213,2.9215,2.921,2.921,2.921,2.9212,2.9211,2.9212,2.9212,2.9206,2.921,2.9206,2.92,2.9198,2.9197,2.9181,2.9184,2.918,2.917,2.9163,2.916,2.9158,2.9151,2.9148,2.9179,2.9179,2.9179,0,2.9207,2.9203,2.9207,2.9203,2.9201,2.9207,2.9201,2.9201,2.9199,2.9197,2.9202,2.9193,2.9193,2.9182,2.9178,2.9177,2.9174,2.918,2.9161,2.9159,2.9157,2.9149,2.9147,2.9178,2.9178,2.9178,2.9178,0,2.9193,2.919,2.9186,2.9184,2.9182,2.9177,2.9179,2.9177,2.9179,2.9179,2.9171,2.9171,2.9166,2.9164,2.9167,2.9153,2.9155,2.916,2.9167,2.9153,2.9146,2.9144,2.9177,2.9177,2.9178,2.9178,0,0,2.9178,2.9177,2.9176,2.9174,2.9173,2.917,2.9164,2.916,2.9156,2.9154,2.9148,2.9141,2.9145,2.9143,2.9145,2.9138,2.9123,2.9143,2.9143,2.9138,2.9105,2.91,2.9097,2.9125,2.9125,2.9124,2.9104,0,2.9166,2.9156,2.9159,2.9149,2.9144,2.9149,2.9143,2.914,2.914,2.9135,2.9135,2.9129,2.9135,2.9134,2.9127,2.9126,2.9116,2.9128,2.9117,2.9117,2.9116,2.9094,2.909,2.9071,2.9102,2.9101,2.9101,0,2.9151,2.9148,2.9137,2.9135,2.9133,2.9128,2.9122,2.9118,2.9115,2.9115,2.9111,2.9113,2.9105,2.9112,2.9099,2.9107,2.9103,2.9101,2.91,2.9099,2.9107,2.909,2.9065,2.9061,2.9097,2.9097,2.9098,0,2.9139,2.9132,2.9124,2.9122,2.912,2.9115,2.9114,2.9111,2.9107,2.9102,2.9099,2.9093,2.9089,2.9084,2.9083,2.909,2.9069,2.9078,2.9067,2.9067,2.9062,2.9062,2.9035,2.9062,2.9062,2.9062,2.9062,0,2.9125,2.9117,2.9118,2.9113,2.9104,2.9106,2.9096,2.9095,2.9092,2.9085,2.9088,2.9081,2.9082,2.9074,2.9074,2.9062,2.906,2.9059,2.9058,2.9058,2.9057,2.9054,2.9055,2.9061,2.9061,2.9061,2.9061,0,2.911,2.911,2.9101,2.9099,2.9098,2.9091,2.9088,2.9082,2.9081,2.9072,2.907,2.9068,2.9059,2.9058,2.9048,2.9047,2.9031,2.9033,2.9033,2.9032,2.9021,2.9021,2.8989,2.8984,2.9016,2.9016,2.9015,0,2.9101,2.9095,2.9091,2.9086,2.9084,2.9078,2.9074,2.9074,2.9069,2.9063,2.9057,2.9048,2.9041,2.9026,2.9023,2.9014,2.9015,2.9004,2.9014,2.9012,2.9012,2.9012,2.901,2.9002,2.9002,2.9001,2.9001,0,2.9083,2.9083,2.9077,2.907,2.9065,2.906,2.9055,2.9051,2.9051,2.9044,2.9035,2.903,2.9018,2.9008,2.8999,2.8995,2.8997,2.8998,2.8995,2.8993,2.8992,2.899,2.9026,2.8999,2.8999,2.8999,2.8999,2.8999,2.907,2.9063,2.9059,2.9051,2.9047,2.9042,2.9035,2.9033,2.9025,2.9016,2.9016,2.9005,2.8998,2.8986,2.8981,2.8971,2.8975,2.8971,2.8969,2.8968,2.8965,2.8995,2.897,2.897,2.897,2.897,2.897,0,2.9051,2.9047,2.904,2.9033,2.9026,2.9029,2.9022,2.9016,2.9006,2.9,2.8992,2.898,2.8969,2.8964,2.8954,2.8946,2.8946,2.8943,2.8943,2.8941,2.8964,2.8967,2.8943,2.8943,2.8943,2.8943,2.8943,2.8943,2.904,2.9029,2.9028,2.9013,2.901,2.8999,2.8995,2.8989,2.8983,2.8969,2.8961,2.8957,2.895,2.8939,2.8928,2.8927,2.8922,2.8917,2.8916,2.8938,2.894,2.8943,2.8946,2.8917,2.8917,2.8894,2.8893,2.8893]}]]